Weather History for Corpus Christi NAS, TX

Change the Weather History Date:

Wednesday, November 21, 2012

  Actual Average Record
Temperature  
Mean Temperature 68 °F -  
Max Temperature 75 °F 71 °F 86 °F (2007)
Min Temperature 60 °F 56 °F 42 °F (2005)
Cooling Degree Days 2    
Growing Degree Days 18 (Base 50)    
Moisture  
Dew Point 64 °F    
Average Humidity 93    
Maximum Humidity 100    
Minimum Humidity 64    
Precipitation  
Precipitation 0.01 in - - ()
Sea Level Pressure  
Sea Level Pressure 30.19 in    
Wind  
Wind Speed 5 mph (ENE)    
Max Wind Speed 15 mph    
Max Gust Speed -    
Visibility 5 miles    
Events Fog    
Averages and records for this station are not official NWS values.
T = Trace of Precipitation, MM = Missing Value Source: NWS Daily Summary

Daily Weather History Graph

Daily Weather History Graph

Search for Another Location

Airport:

Trip Planner

Search our weather history database for the weather conditions in past years. The results will help you decide how hot, cold, wet, or windy it might be!

Date:

Astronomy

Nov. 21, 2012 Rise Set
Actual Time 6:55 AM CST 5:34 PM CST
Civil Twilight 6:30 AM CST 5:59 PM CST
Nautical Twilight 6:01 AM CST 6:28 PM CST
Astronomical Twilight 5:33 AM CST 6:56 PM CST
Moon 1:23 PM CST (11/21) 12:47 AM CST (11/21)
Length of Visible Light 11h 29m
Length of Day
10h 39m
First Quarter, 62% of the Moon is Illuminated
Nov 21
First Quarter
Nov 28
Full
Dec 6
Last Quarter
Dec 13
New
Dec 19
First Quarter

Hourly Weather History & Observations

Time (CST) Temp. Dew Point Humidity Pressure Visibility Wind Dir Wind Speed Gust Speed Precip Events Conditions
12:56 AM - - N/A% 30.19 in 10.0 mi ESE 5.8 mph - N/A   Clear
1:40 AM 62.6 °F 62.6 °F 100% 30.18 in 1.5 mi SE 4.6 mph - N/A   Clear
1:44 AM 64.4 °F 64.4 °F 100% 30.18 in 1.0 mi SE 4.6 mph - N/A   Clear
1:49 AM 64.4 °F 64.4 °F 100% 30.18 in 1.5 mi ESE 4.6 mph - N/A   Clear
1:56 AM 64.0 °F 64.0 °F 100% 30.18 in 2.0 mi ESE 4.6 mph - N/A   Clear
2:07 AM 64.4 °F 64.4 °F 100% 30.18 in 5.0 mi ESE 4.6 mph - N/A   Clear
2:44 AM 62.6 °F 62.6 °F 100% 30.18 in 1.8 mi SE 4.6 mph - N/A   Clear
2:56 AM 64.0 °F 64.0 °F 100% 30.18 in 2.5 mi SE 3.5 mph - N/A   Clear
3:02 AM 64.4 °F 64.4 °F 100% 30.18 in 1.2 mi SE 3.5 mph - N/A   Clear
3:07 AM 64.4 °F 64.4 °F 100% 30.18 in 0.8 mi ESE 3.5 mph - N/A   Clear
3:14 AM 64.4 °F 62.6 °F 94% 30.18 in 1.2 mi East 3.5 mph - N/A   Clear
3:17 AM - - N/A% 30.18 in 2.5 mi East 3.5 mph - N/A   Clear
3:24 AM - - N/A% 30.18 in 10.0 mi East 3.5 mph - N/A   Clear
3:56 AM 62.1 °F 62.1 °F 100% 30.18 in 9.0 mi Calm Calm - N/A   Clear
4:36 AM 62.6 °F 62.6 °F 100% 30.18 in 1.5 mi Calm Calm - N/A   Clear
4:38 AM 62.6 °F 62.6 °F 100% 30.18 in 0.5 mi Calm Calm - N/A Fog Fog
4:49 AM 64.4 °F 64.4 °F 100% 30.18 in 0.8 mi North 3.5 mph - N/A   Clear
4:52 AM 64.4 °F 64.4 °F 100% 30.18 in 1.2 mi North 4.6 mph - N/A   Clear
4:56 AM 64.0 °F 64.0 °F 100% 30.19 in 2.5 mi North 4.6 mph - N/A   Clear
5:03 AM 62.6 °F 62.6 °F 100% 30.18 in 4.0 mi NNW 3.5 mph - N/A   Clear
5:33 AM 62.6 °F 62.6 °F 100% 30.19 in 1.8 mi NNW 3.5 mph - N/A   Clear
5:37 AM 62.6 °F 62.6 °F 100% 30.19 in 1.0 mi NNW 4.6 mph - N/A   Clear
5:45 AM 62.6 °F 62.6 °F 100% 30.19 in 0.8 mi North 3.5 mph - 0.01 in   Clear
5:56 AM 64.0 °F 64.0 °F 100% 30.19 in 0.8 mi North 4.6 mph - 0.01 in   Clear
6:05 AM 62.6 °F 62.6 °F 100% 30.20 in 1.2 mi North 3.5 mph - N/A   Clear
6:08 AM 62.6 °F 62.6 °F 100% 30.20 in 2.0 mi North 4.6 mph - N/A   Clear
6:19 AM 62.6 °F 62.6 °F 100% 30.20 in 4.0 mi North 3.5 mph - N/A   Clear
6:27 AM 62.6 °F 62.6 °F 100% 30.20 in 1.5 mi North 3.5 mph - N/A   Clear
6:29 AM 62.6 °F 62.6 °F 100% 30.20 in 0.8 mi North 3.5 mph - N/A   Clear
6:34 AM 60.8 °F 60.8 °F 100% 30.20 in 5.0 mi North 3.5 mph - N/A Fog Mostly Cloudy
6:56 AM 61.0 °F 61.0 °F 100% 30.21 in 0.2 mi NNW 4.6 mph - N/A Fog Fog
7:15 AM 62.6 °F 62.6 °F 100% 30.22 in 4.0 mi Calm Calm - N/A Fog Mostly Cloudy
7:56 AM 64.9 °F 64.9 °F 100% 30.23 in 7.0 mi Calm Calm - N/A   Mostly Cloudy
8:56 AM 70.0 °F 66.9 °F 90% 30.25 in 7.0 mi North 5.8 mph - N/A   Mostly Cloudy
9:56 AM 72.0 °F 64.9 °F 78% 30.25 in 10.0 mi ENE 5.8 mph - N/A   Mostly Cloudy
10:56 AM 73.9 °F 64.9 °F 73% 30.25 in 10.0 mi ENE 6.9 mph - N/A   Mostly Cloudy
11:56 AM 75.9 °F 64.9 °F 69% 30.23 in 10.0 mi ENE 9.2 mph - N/A   Mostly Cloudy
12:56 PM 75.9 °F 63.0 °F 64% 30.21 in 10.0 mi ENE 9.2 mph - N/A   Mostly Cloudy
1:56 PM 75.9 °F 63.0 °F 64% 30.18 in 10.0 mi East 11.5 mph - N/A   Mostly Cloudy
2:56 PM 75.9 °F 64.0 °F 67% 30.17 in 10.0 mi East 15.0 mph - N/A   Mostly Cloudy
3:56 PM 73.9 °F 63.0 °F 68% 30.16 in 10.0 mi ENE 13.8 mph - N/A   Mostly Cloudy
4:56 PM 72.0 °F 64.0 °F 76% 30.17 in 10.0 mi East 9.2 mph - N/A   Mostly Cloudy
5:56 PM 69.1 °F 64.9 °F 87% 30.17 in 10.0 mi East 6.9 mph - N/A   Mostly Cloudy
6:56 PM 68.0 °F 64.9 °F 90% 30.19 in 10.0 mi East 6.9 mph - N/A   Mostly Cloudy
7:56 PM 66.9 °F 64.9 °F 93% 30.19 in 10.0 mi East 5.8 mph - N/A   Scattered Clouds
8:56 PM 64.9 °F 64.0 °F 97% 30.19 in 10.0 mi East 5.8 mph - N/A   Scattered Clouds
9:56 PM 65.8 °F 64.9 °F 97% 30.19 in 10.0 mi East 4.6 mph - N/A   Scattered Clouds
10:56 PM 65.7 °F 65.1 °F 98% 30.19 in 7.0 mi SE 3.5 mph - N/A   Scattered Clouds
11:56 PM - - N/A% 30.17 in 10.0 mi SE 5.8 mph - N/A   Clear